Skip Page Navigation
NASA JPL Caltech
NASA Logo - Jet Propulsion Laboratory + View the NASA Portal
+ Center for Near-Earth Object Studies
JPL Home Earth Solar System Stars & Galaxies Technology
JPL Solar System Dynamics
BODIES ORBITS EPHEMERIDES TOOLS PHYSICAL DATA DISCOVERY FAQ SITE MAP
IMPORTANT: The SSD Announcement email list is now available. Major changes are coming in the near future, including possible hostname and/or URL changes. To be notified of such changes, subscribe to this email list.

Please visit this page for more details.


JPL Small-Body Database Browser
Search: [ help ]  
434714 (2006 DD25)
Classification: Main-belt Asteroid          SPK-ID: 2434714
Ephemeris | Orbit Diagram | Orbital Elements | Mission Design | Physical Parameters | Discovery Circumstances ]

[ show orbit diagram ]
Orbital Elements at Epoch 2458600.5 (2019-Apr-27.0) TDB
Reference: JPL 13 (heliocentric ecliptic J2000)
 Element Value Uncertainty (1-sigma)   Units 
e .04242038185680121 9.8864e-08  
a 2.678593182035056 4.2715e-08 au
q 2.564966236414104 2.582e-07 au
i 7.859759920054884 1.0953e-05 deg
node 351.43731951 6.0856e-05 deg
peri 34.4316076095228 0.00012822 deg
M 133.8604278870491 0.00011044 deg
tp 2458005.100763222173
(2017-Sep-08.60076322)
0.00049132 TDB
period 1601.247871558279
4.38
3.8302e-05
1.049e-07
d
yr
n .2248246548172836 5.3779e-09 deg/d
Q 2.792220127656007 4.4527e-08 au
  Orbit Determination Parameters
   # obs. used (total)      70  
   data-arc span      4774 days (13.07 yr)  
   first obs. used      2006-01-31  
   last obs. used      2019-02-26  
   planetary ephem.      DE431  
   SB-pert. ephem.      SB431-N16  
   condition code      0  
   norm. resid. RMS      .67482  
   source      ORB  
   producer      Otto Matic  
   solution date      2019-Jul-14 12:08:55  

Additional Information
 Earth MOID = 1.56959 au 
 Jupiter MOID = 2.38929 au 
 T_jup = 3.363 
[ show covariance matrix ]

Ephemeris | Orbit Diagram | Orbital Elements | Mission Design | Physical Parameters | Discovery Circumstances ]

Physical Parameter Table
Parameter Symbol Value Units Sigma Reference Notes
absolute magnitude H 17.1   n/a MPO428052  

434714 (2006 DD25)          Discovered 2006-Feb-20 by Spacewatch at Kitt Peak
Reference: Last Updated: 2015-06-04
Ephemeris | Orbit Diagram | Orbital Elements | Mission Design | Physical Parameters | Discovery Circumstances ]
ABOUT SSD CREDITS/AWARDS PRIVACY/COPYRIGHT GLOSSARY LINKS
FirstGov
(server date/time)  
NASA Home Page
Site Manager:   Ryan S. Park
Webmaster  Alan B. Chamberlin